Marshall, TX

7:57 AM CDT on May 27, 2018 (GMT -0500)
Harrison County

Weather History for KASL - November, 2013

Change the Weather History Date:

Saturday, November 9, 2013

  Actual Average (WUND) Record (WUND)
Temperature  
Mean Temperature 53 °F -  
Max Temperature 56 °F - - (-1)
Min Temperature 48 °F - - (-1)
Degree Days  
Heating Degree Days 12    
Growing Degree Days 3 (Base 50)    
Moisture  
Dew Point 48 °F    
Average Humidity 82    
Maximum Humidity 92    
Minimum Humidity 68    
Precipitation  
Precipitation 0.00 in - - ()
Sea Level Pressure  
Sea Level Pressure 30.24 in    
Wind  
Wind Speed 0 mph (SSE)    
Max Wind Speed 6 mph    
Max Gust Speed -    
Visibility 10 miles    
Events      
Averages and records for this station are not official NWS values.
T = Trace of Precipitation, MM = Missing Value Source: NWS Daily Summary

Daily Weather History Graph

Daily Weather History Graph

Search for Another Location

Airport or City:

Astronomy

Nov. 09, 2013 Rise Set
Actual Time 6:41 AM CST 5:20 PM CST
Civil Twilight 6:15 AM CST 5:45 PM CST
Nautical Twilight 5:46 AM CST 6:15 PM CST
Astronomical Twilight 5:17 AM CST 6:44 PM CST
Moon 12:22 PM CST (11/9) 11:46 PM CST (11/9)
Length of Visible Light 11h 29m
Length of Day
10h 38m
Waxing Crescent, 44% of the Moon is Illuminated
Nov 9
Waxing Crescent
Nov 9
First Quarter
Nov 17
Full
Nov 25
Last Quarter
Dec 2
New

Hourly Weather History & Observations

Time (CST) Temp. Dew Point Humidity Pressure Visibility Wind Dir Wind Speed Gust Speed Precip Events Conditions
12:15 AM 50.5 °F 47.3 °F 89% 30.19 in 10.0 mi Calm Calm - N/A   Clear
12:35 AM 50.5 °F 47.3 °F 89% 30.20 in 10.0 mi Calm Calm - N/A   Clear
12:55 AM 50.5 °F 46.6 °F 86% 30.20 in 10.0 mi Calm Calm - N/A   Clear
1:15 AM 51.3 °F 46.6 °F 84% 30.20 in 10.0 mi Calm Calm - N/A   Clear
1:35 AM 50.5 °F 46.4 °F 86% 30.21 in 10.0 mi Calm Calm - N/A   Clear
1:55 AM 50.5 °F 46.8 °F 87% 30.21 in 10.0 mi Calm Calm - N/A   Clear
2:15 AM 50.5 °F 47.3 °F 89% 30.21 in 10.0 mi Calm Calm - N/A   Clear
2:35 AM 50.5 °F 47.7 °F 90% 30.21 in 10.0 mi Calm Calm - N/A   Clear
2:55 AM 50.5 °F 47.7 °F 90% 30.20 in 10.0 mi Calm Calm - N/A   Clear
3:15 AM 50.5 °F 47.7 °F 90% 30.21 in 10.0 mi Calm Calm - N/A   Scattered Clouds
3:35 AM 50.5 °F 47.8 °F 90% 30.21 in 10.0 mi Calm Calm - N/A   Mostly Cloudy
3:55 AM 50.5 °F 47.5 °F 89% 30.20 in 10.0 mi Calm Calm - N/A   Scattered Clouds
4:15 AM 50.5 °F 46.8 °F 87% 30.21 in 7.0 mi Calm Calm - N/A   Mostly Cloudy
4:35 AM 50.5 °F 46.6 °F 86% 30.21 in 10.0 mi Calm Calm - N/A   Mostly Cloudy
4:55 AM 50.5 °F 47.3 °F 89% 30.21 in 10.0 mi Calm Calm - N/A   Overcast
5:15 AM 50.5 °F 46.6 °F 86% 30.22 in 10.0 mi Calm Calm - N/A   Overcast
5:35 AM 50.5 °F 46.6 °F 86% 30.24 in 10.0 mi Calm Calm - N/A   Overcast
5:55 AM 50.5 °F 47.1 °F 88% 30.23 in 10.0 mi Calm Calm - N/A   Overcast
6:15 AM 50.5 °F 46.9 °F 87% 30.24 in 10.0 mi Calm Calm - N/A   Overcast
6:35 AM 50.5 °F 47.3 °F 89% 30.24 in 10.0 mi Calm Calm - N/A   Overcast
6:55 AM 50.5 °F 47.1 °F 88% 30.24 in 10.0 mi Calm Calm - N/A   Overcast
7:15 AM 51.8 °F 48.4 °F 88% 30.24 in 10.0 mi Calm Calm - N/A   Overcast
7:35 AM 51.8 °F 48.4 °F 88% 30.25 in 10.0 mi Calm Calm - N/A   Overcast
7:55 AM 53.1 °F 49.6 °F 88% 30.25 in 10.0 mi Calm Calm - N/A   Overcast
8:15 AM 53.1 °F 48.9 °F 86% 30.25 in 10.0 mi Calm Calm - N/A   Overcast
8:35 AM 53.1 °F 47.3 °F 81% 30.26 in 10.0 mi South 3.5 mph - N/A   Mostly Cloudy
8:55 AM 55.6 °F 48.4 °F 77% 30.26 in 10.0 mi Calm Calm - N/A   Clear
9:15 AM 55.6 °F 47.3 °F 74% 30.27 in 10.0 mi South 5.8 mph - N/A   Mostly Cloudy
9:35 AM 55.6 °F 47.3 °F 74% 30.26 in 10.0 mi Calm Calm - N/A   Overcast
9:55 AM 55.8 °F 47.5 °F 74% 30.27 in 10.0 mi South 4.6 mph - N/A   Mostly Cloudy
10:15 AM 55.8 °F 45.5 °F 68% 30.27 in 10.0 mi South 5.8 mph - N/A   Mostly Cloudy
10:35 AM 55.6 °F 45.3 °F 68% 30.27 in 10.0 mi Calm Calm - N/A   Mostly Cloudy
10:55 AM 55.6 °F 46.6 °F 72% 30.27 in 10.0 mi Calm Calm - N/A   Mostly Cloudy
11:15 AM 55.6 °F 47.7 °F 75% 30.26 in 10.0 mi Calm Calm - N/A   Mostly Cloudy
11:35 AM 56.1 °F 46.8 °F 71% 30.26 in 10.0 mi South 5.8 mph - N/A   Overcast
11:55 AM 56.8 °F 46.2 °F 68% 30.26 in 10.0 mi Calm Calm - N/A   Overcast
12:15 PM 56.8 °F 46.4 °F 68% 30.26 in 10.0 mi Calm Calm - N/A   Overcast
12:35 PM 56.1 °F 46.6 °F 70% 30.24 in 10.0 mi SSE 3.5 mph - N/A   Overcast
12:55 PM 55.6 °F 47.1 °F 73% 30.23 in 10.0 mi ESE 3.5 mph - N/A   Overcast
1:15 PM 55.6 °F 45.5 °F 69% 30.22 in 10.0 mi Calm Calm - N/A   Overcast
1:35 PM 55.6 °F 46.8 °F 72% 30.24 in 10.0 mi Calm Calm - N/A   Overcast
1:55 PM 55.6 °F 47.3 °F 74% 30.22 in 10.0 mi Calm Calm - N/A   Overcast
2:15 PM 55.6 °F 48.2 °F 76% 30.23 in 10.0 mi Calm Calm - N/A   Overcast
2:35 PM 55.6 °F 48.2 °F 76% 30.22 in 10.0 mi Calm Calm - N/A   Overcast
2:55 PM 55.6 °F 47.3 °F 74% 30.22 in 10.0 mi Calm Calm - N/A   Mostly Cloudy
3:15 PM 55.6 °F 47.7 °F 75% 30.22 in 10.0 mi Calm Calm - N/A   Mostly Cloudy
3:35 PM 55.6 °F 48.2 °F 76% 30.22 in 10.0 mi Calm Calm - N/A   Overcast
3:55 PM 55.6 °F 48.9 °F 78% 30.23 in 10.0 mi Calm Calm - N/A   Overcast
4:15 PM 55.6 °F 49.3 °F 79% 30.23 in 10.0 mi Calm Calm - N/A   Overcast
4:35 PM 55.6 °F 50.0 °F 81% 30.23 in 10.0 mi Calm Calm - N/A   Overcast
4:55 PM 55.6 °F 50.0 °F 81% 30.23 in 10.0 mi Calm Calm - N/A   Overcast
5:15 PM 55.6 °F 50.4 °F 83% 30.23 in 10.0 mi Calm Calm - N/A   Overcast
5:35 PM 55.6 °F 50.0 °F 81% 30.24 in 10.0 mi Calm Calm - N/A   Overcast
5:55 PM 55.6 °F 49.3 °F 79% 30.24 in 10.0 mi Calm Calm - N/A   Overcast
6:15 PM 55.0 °F 48.0 °F 77% 30.26 in 10.0 mi Calm Calm - N/A   Overcast
6:35 PM 53.6 °F 47.3 °F 79% 30.26 in 10.0 mi Calm Calm - N/A   Overcast
6:55 PM 53.2 °F 45.7 °F 76% 30.26 in 10.0 mi Calm Calm - N/A   Overcast
7:15 PM 53.1 °F 46.4 °F 78% 30.27 in 10.0 mi Calm Calm - N/A   Overcast
7:35 PM 53.1 °F 47.1 °F 80% 30.27 in 10.0 mi Calm Calm - N/A   Overcast
8:35 PM 53.1 °F 48.4 °F 84% 30.28 in 10.0 mi Calm Calm - N/A   Overcast
8:55 PM 53.1 °F 48.9 °F 86% 30.27 in 10.0 mi Calm Calm - N/A   Overcast
9:15 PM 53.1 °F 49.1 °F 86% 30.27 in 10.0 mi Calm Calm - N/A   Overcast
9:35 PM 53.1 °F 48.7 °F 85% 30.27 in 10.0 mi Calm Calm - N/A   Overcast
9:55 PM 53.1 °F 49.1 °F 86% 30.28 in 10.0 mi Calm Calm - N/A   Overcast
10:15 PM 52.2 °F 48.6 °F 88% 30.28 in 10.0 mi Calm Calm - N/A   Overcast
10:35 PM 52.2 °F 49.1 °F 89% 30.28 in 10.0 mi Calm Calm - N/A   Overcast
10:55 PM 50.9 °F 48.0 °F 90% 30.29 in 10.0 mi Calm Calm - N/A   Mostly Cloudy
11:15 PM 50.5 °F 48.2 °F 92% 30.29 in 7.0 mi Calm Calm - N/A   Mostly Cloudy
11:35 PM 50.5 °F 48.2 °F 92% 30.28 in 5.0 mi North 3.5 mph - N/A   Scattered Clouds
11:55 PM 48.2 °F 45.7 °F 91% 30.28 in 4.0 mi Calm Calm - N/A   Clear